Home   Weather   19°41'N, 99°11'W   Past weeks
Flag for Mexico

Past Weather in 19°41'N, 99°11'W, Mexico — Yesterday and Last 2 Weeks

Now
68 °F

Partly sunny.


Feels Like: 68 °F
Forecast: 71 / 57 °F
Wind: 2 mph from South

Location: Mexico City / Licenci

Current Time: Oct 18, 2019 at 11:18:40 am

Latest Report: Oct 18, 2019 at 9:53 am


Visibility: 10 mi

Pressure: 29.80 "Hg

Humidity: 56%

Dew Point: 52 °F

Location of 19°41'N, 99°11'WLocation

Past Weather in 19°41'N, 99°11'W — Graph

°F

19°41'N, 99°11'W Temperature Yesterday

Maximum temperature yesterday: 64 °F (at 12:20 pm)
Minimum temperature yesterday: 57 °F (at 2:11 am)
Average temperature yesterday: 60 °F

High & Low Weather Summary for the Past Weeks

 TemperatureHumidityPressure
High81 °F (Oct 11, 4:51 pm)100% (Oct 17, 9:38 pm)30.39 "Hg (Oct 17, 9:38 pm)
Low54 °F (Oct 13, 6:54 am)21% (Oct 14, 3:47 pm)29.59 "Hg (Oct 14, 3:47 pm)
Average65 °F61%30.14 "Hg
* Reported Oct 3 9:43 am — Oct 18 9:53 am, 19°41'N, 99°11'W. Weather by CustomWeather, © 2019

Note: Actual official high and low records may vary slightly from our data, if they occured in-between our weather recording intervals... More about our weather records

Advertising

19°41'N, 99°11'W Weather History for the Previous 24 Hours

Scroll right to see more
 ConditionsComfort  
Time TempWeatherWind HumidityBarometerVisibility
9:53 am
Fri, Oct 18
68 °FPartly sunny.2 mph56%29.80 "Hg10 mi
9:24 am66 °FPartly sunny.3 mph60%30.28 "Hg10 mi
8:45 am63 °FPartly sunny.3 mph73%30.27 "Hg10 mi
7:48 am59 °FPartly sunny.3 mph82%30.26 "Hg10 mi
6:52 am59 °FPassing clouds.7 mph88%29.80 "Hg8 mi
5:46 am59 °FPartly cloudy.2 mph88%30.24 "Hg7 mi
4:44 am59 °FPassing clouds.No wind88%30.24 "Hg7 mi
3:45 am59 °FPassing clouds.6 mph88%29.82 "Hg8 mi
2:42 am59 °FPassing clouds.No wind88%30.25 "Hg8 mi
1:45 am59 °FPassing clouds.6 mph88%30.27 "Hg10 mi
12:48 am59 °FPartly cloudy.3 mph88%29.84 "Hg8 mi
11:50 pm
Thu, Oct 17
61 °FPartly cloudy.6 mph83%30.28 "Hg7 mi
10:47 pm61 °FMostly cloudy.7 mph83%30.28 "Hg7 mi
9:53 pm59 °FMostly cloudy.8 mph94%29.83 "Hg7 mi
9:38 pm57 °FLight rain. Mostly cloudy.12 mph100%30.26 "Hg5 mi
8:43 pm63 °FMostly cloudy.10 mph83%30.24 "Hg9 mi
7:51 pm63 °FMostly cloudy.2 mph83%30.23 "Hg8 mi
6:50 pm63 °FMostly cloudy.5 mph77%29.78 "Hg5 mi
5:51 pm63 °FMostly cloudy.3 mph77%30.20 "Hg5 mi
4:48 pm63 °FOvercast.3 mph83%30.20 "Hg4 mi
4:43 pm63 °FLight rain. Overcast.5 mph83%30.20 "Hg4 mi
4:08 pm61 °FLight rain. Overcast.6 mph94%30.20 "Hg4 mi
3:34 pm59 °FHeavy rain. Mostly cloudy.8 mph88%30.21 "Hg2 mi
2:49 pm63 °FMostly cloudy.8 mph83%30.21 "Hg5 mi
1:59 pm61 °FMostly cloudy.7 mph88%30.23 "Hg5 mi
1:39 pm59 °FLight rain. Mostly cloudy.8 mph94%30.24 "Hg3 mi
1:10 pm61 °FLight rain. Mostly cloudy.6 mph88%30.26 "Hg3 mi
12:52 pm63 °FLight rain. Mostly cloudy.6 mph77%29.78 "Hg5 mi
12:20 pm64 °FCloudy.3 mph78%30.27 "Hg6 mi
11:45 am61 °FBroken clouds.8 mph88%30.29 "Hg4 mi
11:36 am61 °FMostly cloudy.7 mph88%30.29 "Hg3 mi
11:04 am61 °FLight rain. Mostly cloudy.6 mph83%30.30 "Hg2 mi
Weather by CustomWeather, © 2019

See weather overview